Weather History for New Orleans Lakefront, LA

Change the Weather History Date:

Friday, December 7, 2012

  Actual Average Record
Temperature  
Mean Temperature 64 °F 57 °F  
Max Temperature 72 °F 66 °F 83 °F (1951)
Min Temperature 55 °F 48 °F 26 °F (1950)
Degree Days  
Heating Degree Days 1 9  
Month to date heating degree days 3 59  
Since 1 July heating degree days 192 223  
Cooling Degree Days 0 1  
Month to date cooling degree days 14 7  
Year to date cooling degree days 3388 2985  
Growing Degree Days 15 (Base 50)    
Moisture  
Dew Point 63 °F    
Average Humidity 89    
Maximum Humidity 100    
Minimum Humidity 78    
Precipitation  
Precipitation 0.00 in 0.17 in 3.00 in (1989)
Month to date precipitation 2.86 1.16  
Year to date precipitation 65.99 58.37  
Snow  
Snow 0.00 in - - ()
Month to date snowfall 0.0  
Since 1 July snowfall 0.0  
Snow Depth 0.00 in    
Sea Level Pressure  
Sea Level Pressure 29.94 in    
Wind  
Wind Speed 2 mph (NNE)    
Max Wind Speed 8 mph    
Max Gust Speed 12 mph    
Visibility 4 miles    
Events Fog    
T = Trace of Precipitation, MM = Missing Value Source: NWS Daily Summary

Daily Weather History Graph

Daily Weather History Graph

Search for Another Location

Airport:

Trip Planner

Search our weather history database for the weather conditions in past years. The results will help you decide how hot, cold, wet, or windy it might be!

Date:

Astronomy

Dec. 07, 2012 Rise Set
Actual Time 6:43 AM CST 5:00 PM CST
Civil Twilight 6:17 AM CST 5:26 PM CST
Nautical Twilight 5:47 AM CST 5:56 PM CST
Astronomical Twilight 5:18 AM CST 6:25 PM CST
Moon 12:26 AM CST (12/7) 12:36 PM CST (12/7)
Length of Visible Light 11h 09m
Length of Day
10h 16m
Last Quarter, 38% of the Moon is Illuminated
Dec 7
Last Quarter
Dec 13
New
Dec 19
First Quarter
Dec 28
Full
Jan 4
Last Quarter

Hourly Weather History & Observations

Time (CST) Temp. Dew Point Humidity Pressure Visibility Wind Dir Wind Speed Gust Speed Precip Events Conditions
12:53 AM 66.0 °F 62.1 °F 87% 29.93 in 10.0 mi ESE 5.8 mph - N/A   Overcast
1:53 AM 66.0 °F 63.0 °F 90% 29.92 in 10.0 mi SE 4.6 mph - N/A   Overcast
2:53 AM 66.0 °F 63.0 °F 90% 29.92 in 10.0 mi SSE 4.6 mph - N/A   Overcast
3:53 AM 66.0 °F 63.0 °F 90% 29.91 in 10.0 mi SE 3.5 mph - N/A   Overcast
4:53 AM 64.9 °F 63.0 °F 93% 29.92 in 9.0 mi ESE 3.5 mph - N/A   Scattered Clouds
5:53 AM 64.0 °F 62.1 °F 93% 29.93 in 4.0 mi Calm Calm - N/A   Clear
6:05 AM 62.6 °F 62.6 °F 100% 29.95 in 1.5 mi Calm Calm - N/A   Clear
6:22 AM 62.6 °F 62.6 °F 100% 29.96 in 0.8 mi Calm Calm - N/A   Mist
6:46 AM 62.6 °F 62.6 °F 100% 29.96 in 0.2 mi Calm Calm - N/A Fog Fog
6:53 AM 63.0 °F 62.1 °F 97% 29.95 in 0.2 mi Calm Calm - N/A Fog Fog
6:59 AM 62.6 °F 62.6 °F 100% 29.97 in 1.0 mi West 4.6 mph - N/A   Mostly Cloudy
7:11 AM 62.6 °F 62.6 °F 100% 29.97 in 2.5 mi West 3.5 mph - N/A   Overcast
7:19 AM 62.6 °F 62.6 °F 100% 29.97 in 4.0 mi Calm Calm - N/A   Overcast
7:28 AM 62.6 °F 62.6 °F 100% 29.97 in 4.0 mi Calm Calm - N/A   Overcast
7:53 AM 64.0 °F 63.0 °F 96% 29.96 in 4.0 mi WNW 3.5 mph - N/A   Overcast
8:16 AM 62.6 °F 62.6 °F 100% 29.98 in 1.2 mi WNW 8.1 mph - N/A   Overcast
8:24 AM 62.6 °F 62.6 °F 100% 29.98 in 0.5 mi WNW 5.8 mph - N/A Fog Fog
8:32 AM 62.6 °F 62.6 °F 100% 29.98 in 2.5 mi WNW 5.8 mph - N/A   Overcast
8:39 AM 62.6 °F 62.6 °F 100% 29.99 in 3.0 mi WNW 4.6 mph - N/A   Overcast
8:53 AM 63.0 °F 63.0 °F 100% 29.97 in 6.0 mi NW 5.8 mph - N/A   Overcast
9:11 AM 64.4 °F 62.6 °F 94% 29.99 in 7.0 mi NW 5.8 mph - N/A   Overcast
9:53 AM 64.9 °F 63.0 °F 93% 29.97 in 9.0 mi NNW 3.5 mph - N/A   Overcast
10:39 AM 66.2 °F 62.6 °F 88% 29.98 in 3.0 mi NNE 4.6 mph - N/A   Overcast
10:48 AM 66.2 °F 62.6 °F 88% 29.98 in 2.0 mi NNE 3.5 mph - N/A   Overcast
10:53 AM 66.0 °F 63.0 °F 90% 29.96 in 0.8 mi NNE 3.5 mph - N/A   Overcast
11:12 AM 66.2 °F 62.6 °F 88% 29.97 in 2.0 mi NE 3.5 mph - N/A   Overcast
11:20 AM 66.2 °F 62.6 °F 88% 29.97 in 3.0 mi ENE 3.5 mph - N/A   Overcast
11:41 AM 66.2 °F 62.6 °F 88% 29.96 in 2.5 mi NNE 4.6 mph - N/A   Mostly Cloudy
11:53 AM 66.0 °F 63.0 °F 90% 29.94 in 3.0 mi NNW 4.6 mph - N/A   Overcast
12:22 PM 66.2 °F 64.4 °F 94% 29.95 in 1.0 mi NNW 8.1 mph - N/A   Overcast
12:53 PM 64.9 °F 64.0 °F 97% 29.91 in 1.0 mi North 6.9 mph - N/A   Overcast
12:59 PM 64.4 °F 64.4 °F 100% 29.93 in 3.0 mi North 6.9 mph - N/A   Overcast
1:34 PM 64.4 °F 64.4 °F 100% 29.92 in 2.5 mi North 5.8 mph - N/A   Overcast
1:42 PM 64.4 °F 64.4 °F 100% 29.92 in 2.5 mi North 3.5 mph - N/A   Overcast
1:53 PM 64.9 °F 64.0 °F 97% 29.89 in 2.0 mi North 3.5 mph - N/A   Overcast
2:12 PM 64.4 °F 64.4 °F 100% 29.91 in 4.0 mi Calm Calm - N/A   Overcast
2:53 PM 66.9 °F 64.0 °F 90% 29.88 in 8.0 mi Calm Calm - N/A   Overcast
3:53 PM 68.0 °F 64.0 °F 87% 29.88 in 10.0 mi NE 5.8 mph - N/A   Overcast
4:53 PM 66.9 °F 64.0 °F 90% 29.89 in 9.0 mi East 5.8 mph - N/A   Mostly Cloudy
5:53 PM 66.9 °F 64.9 °F 93% 29.90 in 10.0 mi East 4.6 mph - N/A   Clear
6:23 PM 66.2 °F 64.4 °F 94% 29.92 in 8.0 mi East 3.5 mph - N/A   Partly Cloudy
6:53 PM 66.2 °F 64.4 °F 94% 29.93 in 6.0 mi Calm Calm - N/A   Scattered Clouds
7:32 PM 64.4 °F 64.4 °F 100% 29.94 in 5.0 mi Calm Calm - N/A   Overcast
7:41 PM 64.4 °F 64.4 °F 100% 29.94 in 4.0 mi Calm Calm - N/A   Overcast
7:49 PM 64.4 °F 64.4 °F 100% 29.94 in 2.5 mi Calm Calm - N/A   Mostly Cloudy
7:53 PM 64.9 °F 64.0 °F 97% 29.92 in 2.5 mi East 3.5 mph - N/A   Mostly Cloudy
8:15 PM 66.2 °F 64.4 °F 94% 29.94 in 0.8 mi ESE 3.5 mph - N/A   Overcast
8:31 PM 66.2 °F 64.4 °F 94% 29.94 in 0.2 mi SE 3.5 mph - N/A Fog Fog
8:53 PM 66.0 °F 64.9 °F 96% 29.93 in 0.2 mi SE 3.5 mph - N/A Fog Fog
9:19 PM 64.4 °F 64.4 °F 100% 29.95 in 0.2 mi Calm Calm - N/A Fog Fog
9:53 PM 64.9 °F 64.9 °F 100% 29.93 in 0.2 mi Calm Calm - N/A Fog Fog
10:53 PM 64.0 °F 64.0 °F 100% 29.93 in 0.2 mi Calm Calm - N/A Fog Fog
11:53 PM 63.0 °F 63.0 °F 100% 29.92 in 0.2 mi Calm Calm - N/A Fog Fog